Wind_Speed
25 23 22 21 20 19 17 16 14 13 11 10 8 7 6 5 5 5 4 3 3 3 4 4 5 5 5 6 6 7 7 7 7 8 9 9 9 10 10 10 10 11
25 24 23 21 20 18 16 15 13 12 11 10 10 10 9 8 8 7 6 5 5 5 5 5 5 6 6 7 7 8 9 9 9 9 11 11 11 12 12 12 12 13
25 24 23 21 20 18 16 14 13 12 12 12 12 12 11 10 10 9 8 7 7 7 7 7 7 7 7 8 8 9 10 11 11 12 13 13 13 14 14 14 15 15
25 24 22 20 19 17 15 14 13 13 13 13 13 13 13 12 11 11 10 10 10 9 9 9 9 8 8 9 10 11 12 13 13 14 16 16 15 15 16 16 17 17
24 22 21 19 18 17 16 15 14 14 14 14 14 14 13 13 13 12 11 11 11 11 11 10 10 10 10 10 11 12 13 14 14 15 17 19 18 17 17 18 19 19
23 22 20 19 18 16 16 15 15 15 14 14 14 14 14 13 13 12 12 13 13 12 12 12 12 11 11 11 12 13 15 16 16 16 18 20 20 20 19 19 20 21
24 22 21 19 18 17 16 16 15 15 14 14 14 14 14 13 13 13 14 14 14 13 13 13 13 12 12 12 13 14 15 17 17 18 19 21 22 22 21 20 21 23
24 22 21 20 19 18 17 16 16 15 14 14 14 14 14 14 14 15 15 15 15 14 14 14 14 14 13 13 14 15 16 18 19 19 20 22 23 24 22 21 23 24
24 22 21 20 19 19 18 17 16 15 14 15 14 15 15 15 16 16 16 16 15 15 15 15 15 15 15 15 15 16 18 19 20 20 21 23 24 24 23 23 24 26
23 22 21 20 20 19 18 17 16 15 15 15 15 16 16 16 16 16 16 16 15 15 16 16 16 15 16 16 17 18 19 20 21 20 21 23 25 25 24 24 25 26
24 22 21 20 20 19 18 17 16 16 16 16 16 16 16 16 16 16 16 16 16 16 17 17 16 16 17 18 18 19 20 21 21 21 22 23 25 25 25 25 26 27
25 23 22 20 20 19 18 17 16 16 16 16 15 16 16 16 16 16 16 16 17 17 18 18 17 18 19 19 19 20 21 21 21 21 22 24 25 26 26 26 27 27
26 23 22 20 19 18 17 17 17 17 16 15 15 16 16 16 16 16 16 17 17 18 18 18 19 19 20 20 20 21 21 21 21 21 23 24 26 26 26 26 27 27
26 23 21 20 19 18 18 18 17 16 15 15 16 17 18 17 17 17 17 17 18 19 19 19 20 20 21 21 21 21 21 21 21 21 23 24 26 27 26 26 27 27
26 23 21 20 19 19 19 18 16 15 15 16 17 18 18 17 17 17 18 18 19 19 20 20 21 21 21 21 21 20 20 20 20 21 22 24 26 27 27 27 28 29
26 24 22 21 21 20 19 18 16 16 16 17 18 19 18 18 18 18 19 20 20 20 20 21 22 21 20 20 20 20 20 20 21 22 23 25 28 29 30 30 30 30
26 24 23 22 21 20 19 18 17 17 18 19 19 19 18 18 18 19 20 20 20 21 22 22 22 21 19 19 18 18 19 21 23 25 26 27 29 31 32 32 31 31
27 25 24 22 21 20 19 17 17 18 19 20 20 19 18 18 19 20 20 20 21 22 23 23 22 20 18 18 18 18 19 21 23 25 27 28 30 31 31 32 33 33
27 25 24 22 21 20 19 18 18 20 20 20 20 19 19 20 20 21 20 20 21 22 22 23 22 20 19 19 19 18 18 21 22 25 27 29 30 31 31 32 32 31
27 25 24 22 21 20 19 19 20 21 20 20 20 19 20 21 20 20 20 21 21 21 23 23 23 21 20 19 19 18 19 20 22 24 27 29 30 30 31 31 31 31
27 26 24 22 22 21 21 21 21 21 21 20 19 19 20 20 20 20 20 21 21 22 23 25 24 22 21 21 20 19 19 21 22 25 28 30 32 32 33 34 34 34
28 26 24 23 23 22 22 23 22 22 20 18 18 19 20 20 20 20 21 22 23 23 24 26 25 24 22 21 21 20 20 21 23 25 28 31 33 33 34 34 34 33
28 26 24 24 24 23 24 23 22 21 18 17 18 19 20 20 21 21 22 23 24 25 26 27 26 24 23 22 22 21 20 21 23 25 28 31 33 33 33 33 32 31
28 26 25 24 24 24 24 23 20 19 17 16 18 20 21 21 22 22 23 25 26 26 26 28 28 25 23 23 23 22 21 21 23 25 28 31 32 32 31 31 31 31
27 25 25 25 25 24 23 20 19 17 17 18 19 21 22 22 22 24 26 26 27 27 27 28 29 25 22 23 24 22 20 21 22 24 27 29 30 31 32 32 32 32
26 25 25 25 25 23 20 18 18 18 18 19 21 21 23 24 24 26 28 28 28 28 28 28 28 25 22 23 24 21 18 18 21 24 27 29 30 31 33 34 33 33
Wind_Direction
197 196 197 197 197 199 199 200 203 207 212 218 225 233 232 224 222 229 235 241 261 286 304 315 320 324 325 326 325 325 325 322 320 316 307 305 303 299 297 291 288 290
197 198 200 201 200 201 203 204 209 213 217 223 229 233 234 231 231 233 237 245 257 271 282 291 297 303 309 312 313 314 312 311 310 306 300 299 299 296 296 295 292 291
198 201 202 203 204 205 206 207 211 217 220 224 227 230 231 232 233 236 240 246 253 261 270 277 284 290 297 300 303 304 303 303 304 301 297 296 295 294 294 293 291 291
199 202 204 204 206 208 210 211 214 218 222 225 227 229 230 231 233 236 240 245 250 256 262 269 277 283 288 292 294 296 297 297 298 297 294 293 292 292 292 292 290 291
199 202 204 206 207 209 211 215 219 222 224 227 229 229 229 231 234 236 240 245 250 255 260 267 273 277 282 285 287 291 292 292 292 292 290 290 291 291 290 290 289 289
200 203 206 208 209 211 214 217 222 225 227 228 230 232 233 234 238 240 243 247 251 256 261 267 271 275 279 281 284 287 289 289 290 289 288 288 289 289 289 289 288 289
201 204 207 210 212 215 218 220 224 227 229 230 232 235 238 240 241 243 246 249 252 257 263 268 272 275 278 279 282 285 287 288 288 287 286 286 286 287 288 289 289 288
202 204 207 211 213 216 219 221 224 227 229 232 234 237 240 242 244 245 247 250 254 259 264 269 273 277 279 282 284 286 286 286 287 287 285 285 285 286 288 290 290 289
204 204 206 210 213 217 220 223 226 228 232 234 235 237 240 242 244 246 248 251 256 261 265 269 273 277 281 284 285 286 286 285 286 286 285 285 285 287 289 291 290 290
205 205 207 209 213 218 220 223 227 231 234 236 236 237 239 241 244 246 249 254 259 264 266 269 273 278 281 283 284 284 284 284 286 285 284 284 286 288 290 291 291 291
206 207 209 212 215 219 222 224 228 232 235 237 237 238 239 241 245 248 254 259 262 265 268 271 275 279 280 281 282 282 283 283 285 285 284 284 285 287 288 289 291 291
208 209 212 215 218 222 224 227 230 234 237 239 241 243 244 246 249 253 257 261 263 265 269 273 277 278 278 280 282 282 283 284 285 284 284 284 284 285 287 288 290 291
210 211 214 217 220 224 226 228 232 236 240 243 246 249 251 252 254 255 257 261 263 267 271 274 277 277 279 281 282 284 285 285 285 285 283 283 284 285 287 288 289 290
212 213 216 219 222 225 226 230 234 239 244 247 249 251 253 255 256 258 261 263 265 269 271 273 275 277 279 282 284 286 288 287 287 286 284 283 283 285 287 288 289 291
213 215 217 219 222 225 229 233 237 242 246 247 249 252 255 258 260 262 264 265 267 269 271 273 275 276 280 284 286 287 288 288 286 285 286 286 286 288 290 290 292 294
214 216 218 220 224 228 232 236 240 243 247 249 252 255 258 260 262 263 265 267 268 270 272 274 275 278 282 285 287 290 291 292 291 290 291 292 292 292 293 294 295 296
214 215 218 222 226 230 234 238 241 245 248 251 254 256 259 261 262 263 264 267 270 273 274 275 276 280 284 286 289 290 286 285 289 290 290 290 289 289 290 291 292 292
214 216 220 224 228 232 236 239 243 246 249 252 255 258 261 262 262 264 265 268 271 273 275 277 280 284 286 287 290 287 277 274 278 281 281 282 282 282 283 285 287 288
215 218 222 226 230 234 238 241 244 247 250 254 258 260 261 261 262 265 267 270 273 276 279 281 283 286 288 289 291 289 279 273 273 275 276 277 278 279 281 282 284 284
216 220 224 229 232 236 240 242 245 249 252 255 258 259 261 262 264 267 270 273 278 281 284 284 285 288 291 292 293 291 283 277 275 275 275 275 276 276 276 276 277 277
216 221 225 230 234 237 241 244 247 250 252 255 257 259 262 265 268 272 275 279 283 286 286 284 286 290 292 293 295 291 283 278 276 274 273 273 273 272 272 273 274 275
217 222 226 231 235 238 242 244 247 251 253 256 259 261 265 269 272 276 280 283 285 286 286 285 286 290 293 294 295 291 284 279 277 274 274 274 274 275 276 276 277 277
219 223 227 233 236 239 243 246 249 252 255 259 262 265 269 273 276 279 281 283 284 285 286 287 287 290 294 295 295 294 288 281 278 277 277 277 278 279 279 280 280 281
220 224 230 234 238 240 244 247 250 254 259 263 266 269 272 275 279 281 281 281 283 285 286 288 288 292 296 295 295 296 291 282 279 279 278 278 280 281 282 283 284 284
221 226 231 236 239 242 245 249 253 259 265 268 269 271 274 277 280 282 281 281 283 285 287 288 290 293 296 294 296 299 294 284 279 278 277 277 279 281 283 285 285 285
222 228 233 237 240 243 247 252 257 263 266 268 270 272 276 279 280 281 282 282 284 286 288 289 291 293 294 295 297 298 293 283 276 273 273 276 279 282 284 286 286 287
Height
882 882 883 883 884 884 884 885 885 885 886 886 887 888 889 890 890 891 892 892 892 893 893 893 893 893 893 893 893 893 892 893 892 892 892 892 892 891 891 891 891 891
880 880 881 882 882 882 883 883 884 884 885 885 886 887 888 889 890 890 891 891 892 892 892 892 892 892 892 892 892 892 891 891 891 891 890 890 890 890 889 889 889 889
879 879 880 880 881 881 882 882 883 883 884 885 885 886 887 888 889 889 890 890 891 891 891 891 891 891 891 891 891 891 890 890 890 889 889 888 888 888 887 887 887 887
877 877 878 879 879 880 880 881 882 882 883 884 884 886 886 887 888 888 889 889 889 890 890 890 890 890 890 890 890 889 889 888 888 887 886 886 886 886 885 885 884 884
875 876 877 878 878 878 879 880 880 881 882 883 883 884 885 886 887 887 887 888 888 888 889 889 889 889 889 888 888 887 887 886 886 885 884 883 883 883 883 883 882 881
873 874 875 876 876 877 878 878 879 880 881 882 882 883 884 884 885 885 886 886 887 887 887 887 887 887 887 887 886 886 885 884 884 883 882 881 881 880 880 880 879 878
871 872 872 874 875 875 876 877 878 879 880 881 881 882 882 883 883 884 884 885 885 885 885 885 885 885 885 885 884 883 883 882 881 881 880 878 878 877 877 877 876 875
869 870 871 872 873 874 875 876 877 878 879 879 880 880 881 881 882 882 882 883 883 883 883 883 883 883 883 882 882 881 880 879 879 878 877 876 875 874 874 874 873 872
867 868 869 870 871 872 873 874 875 876 877 878 879 879 879 880 880 880 881 880 880 881 881 881 881 880 880 880 879 879 878 877 876 875 874 873 871 871 871 871 870 868
866 867 868 868 870 871 872 873 874 875 876 876 877 877 878 878 878 878 878 878 878 878 878 878 878 878 877 877 876 876 875 874 873 872 871 870 868 868 867 867 866 865
864 865 866 867 868 869 870 871 872 873 874 874 875 875 876 876 876 876 876 876 876 876 876 876 876 875 875 874 874 873 872 871 871 869 868 867 865 864 864 864 863 861
862 863 864 865 867 868 869 870 870 871 872 872 873 873 873 873 873 873 873 873 874 874 873 873 873 872 872 871 871 870 869 868 867 866 865 863 862 861 861 860 860 858
860 862 863 864 865 866 867 868 868 869 869 870 870 870 871 871 871 871 871 871 871 871 871 870 870 869 869 868 868 867 866 865 864 863 861 860 859 858 857 856 856 855
859 860 862 863 864 865 865 866 866 866 867 868 868 868 868 869 869 869 869 868 868 868 868 867 867 866 865 865 864 863 862 861 860 859 858 856 855 854 854 853 852 852
857 859 860 861 862 862 863 863 864 864 865 865 866 866 866 866 866 866 866 865 865 865 865 864 863 863 862 862 861 860 859 858 857 856 854 853 852 850 850 850 849 848
855 857 858 859 859 860 861 861 861 862 862 863 863 863 864 863 863 863 863 863 863 862 862 861 860 860 859 859 858 856 855 855 853 852 852 850 848 847 846 845 845 844
853 854 855 856 857 858 859 859 859 860 860 860 860 860 861 861 860 860 860 860 860 859 858 857 856 856 856 855 855 854 853 852 851 850 849 848 846 844 843 842 842 841
850 852 853 854 855 856 856 857 857 857 857 857 858 858 858 858 857 857 857 857 856 856 855 854 853 853 853 852 851 851 851 851 849 848 846 845 843 842 841 840 839 838
848 849 850 852 853 854 854 855 854 854 854 855 855 855 855 854 854 854 854 854 853 852 851 850 850 849 849 849 848 848 848 848 847 845 844 842 840 839 838 837 836 835
845 847 848 849 851 851 852 852 852 851 852 852 852 852 852 851 851 851 851 851 850 849 848 846 846 846 846 846 845 844 845 844 844 842 840 838 837 836 835 834 833 832
843 844 846 847 848 849 849 849 849 849 849 850 849 849 848 848 848 848 847 847 846 846 845 843 842 843 843 842 841 841 841 841 840 838 836 833 832 831 830 829 829 828
840 841 843 844 845 846 846 846 846 846 847 847 847 846 845 845 845 845 844 844 843 843 841 839 839 839 839 838 838 837 838 837 835 833 831 829 827 826 825 824 824 823
837 838 840 841 842 843 843 843 844 844 844 844 844 843 842 842 842 842 841 840 840 839 838 836 835 835 835 834 834 834 833 833 831 829 827 824 822 821 820 819 819 819
834 836 837 839 839 840 840 841 841 841 841 842 841 840 839 839 839 838 837 837 836 835 834 833 831 831 831 830 830 830 830 828 827 825 823 820 818 817 816 815 814 814
832 834 835 836 837 837 838 838 839 839 839 839 838 837 836 836 836 835 833 832 832 831 831 829 827 827 827 827 826 826 826 825 824 822 819 817 815 814 812 811 810 810
830 831 832 833 834 835 836 836 836 837 836 836 835 835 834 833 833 832 830 828 828 827 826 825 824 823 823 823 822 822 822 821 820 818 816 814 812 811 808 807 806 805